PAL454 RPMR-RPLL

Flight info

Callsign PAL454
Flight time 1h 25m
Altitude 40000
Route LATIA4R LATIA W6 LUMVI B473 LAIYA LAIYA7R
Aircraft B77W/H-SDE1E2E3FGHIJ2J3J4J5M1RWXY/LB1D1

Departure

Time 2026-04-26 10:54
Airport General Santos International Airport (RPMR)

Arrival

Time 2026-04-26 12:19
Airport Ninoy Aquino International Airport (RPLL)
Time Latitude Longitude Altitude Speed Heading
2026-04-26 10:41 6.05778 125.09931 519 ft 0 kts 83°
2026-04-26 10:45 6.05774 125.09914 516 ft 3 kts 66°
2026-04-26 10:45 6.05764 125.09896 516 ft 3 kts 49°
2026-04-26 10:45 6.05749 125.09883 519 ft 3 kts 31°
2026-04-26 10:46 6.05732 125.09874 519 ft 3 kts 13°
2026-04-26 10:46 6.05720 125.09872 519 ft 0 kts
2026-04-26 10:48 6.05725 125.09872 519 ft 2 kts
2026-04-26 10:48 6.05765 125.09873 519 ft 9 kts 358°
2026-04-26 10:49 6.05823 125.09852 519 ft 9 kts 310°
2026-04-26 10:50 6.05834 125.09809 519 ft 10 kts 275°
2026-04-26 10:50 6.05834 125.09763 519 ft 10 kts 267°
2026-04-26 10:50 6.05816 125.09651 519 ft 14 kts 268°
2026-04-26 10:50 6.05867 125.09612 519 ft 15 kts 353°
2026-04-26 10:51 6.06062 125.09588 520 ft 35 kts 352°
2026-04-26 10:51 6.06555 125.09527 521 ft 36 kts 353°
2026-04-26 10:51 6.06801 125.09497 519 ft 36 kts 353°
2026-04-26 10:52 6.07040 125.09469 517 ft 29 kts
2026-04-26 10:52 6.07140 125.09490 518 ft 11 kts
2026-04-26 10:52 6.07192 125.09475 517 ft 6 kts 289°
2026-04-26 10:52 6.07180 125.09459 517 ft 4 kts 213°
2026-04-26 10:53 6.07105 125.09459 517 ft 25 kts 173°
2026-04-26 10:53 6.06756 125.09502 520 ft 89 kts 173°
2026-04-26 10:53 6.05848 125.09617 527 ft 169 kts 171°
2026-04-26 10:54 6.03419 125.09926 2071 ft 181 kts 173°
2026-04-26 10:54 6.02108 125.10081 2721 ft 198 kts 172°
2026-04-26 10:54 6.00753 125.10244 2956 ft 230 kts 172°
2026-04-26 10:54 5.98981 125.10459 3282 ft 264 kts 172°
2026-04-26 10:55 5.97112 125.10715 4033 ft 273 kts 164°
2026-04-26 10:55 5.95459 125.11585 4823 ft 275 kts 132°
2026-04-26 10:55 5.94457 125.13207 5863 ft 270 kts 103°
2026-04-26 10:55 5.94271 125.14427 6504 ft 268 kts 86°
2026-04-26 10:56 5.95015 125.16773 7672 ft 271 kts 53°
2026-04-26 10:56 5.96429 125.18013 8578 ft 276 kts 27°
2026-04-26 10:56 5.98295 125.18523 9463 ft 284 kts
2026-04-26 10:56 6.00290 125.18525 10269 ft 291 kts
2026-04-26 10:57 6.02393 125.18456 10692 ft 316 kts
2026-04-26 10:57 6.04698 125.18373 10914 ft 347 kts 360°
2026-04-26 10:57 6.07188 125.18293 11331 ft 368 kts
2026-04-26 10:57 6.09809 125.18223 12115 ft 379 kts
2026-04-26 10:58 6.12471 125.18163 13057 ft 386 kts
2026-04-26 10:58 6.15174 125.18122 13960 ft 389 kts
2026-04-26 10:58 6.17818 125.18584 14653 ft 391 kts 21°
2026-04-26 10:58 6.20376 125.19586 15340 ft 399 kts 24°
2026-04-26 10:59 6.22976 125.20636 16177 ft 405 kts 23°
2026-04-26 10:59 6.25610 125.21679 17090 ft 409 kts 23°
2026-04-26 10:59 6.28280 125.22713 17946 ft 414 kts 22°
2026-04-26 10:59 6.31001 125.23750 18670 ft 421 kts 22°
2026-04-26 11:00 6.33761 125.24793 19386 ft 426 kts 22°
2026-04-26 11:00 6.36547 125.25844 20121 ft 430 kts 22°
2026-04-26 11:00 6.39357 125.26903 20855 ft 433 kts 21°
2026-04-26 11:00 6.42288 125.27592 21358 ft 442 kts
2026-04-26 11:01 6.45397 125.27247 21976 ft 452 kts 346°
2026-04-26 11:01 6.48301 125.25993 22675 ft 458 kts 328°
2026-04-26 11:01 6.50851 125.24059 23292 ft 462 kts 322°
2026-04-26 11:01 6.53351 125.21979 23790 ft 469 kts 321°
2026-04-26 11:02 6.55874 125.19869 24348 ft 473 kts 321°
2026-04-26 11:02 6.58391 125.17799 24933 ft 475 kts 322°
2026-04-26 11:02 6.60991 125.15703 25427 ft 480 kts 322°
2026-04-26 11:02 6.63615 125.13609 25991 ft 483 kts 322°
2026-04-26 11:03 6.66264 125.11498 26538 ft 486 kts 322°
2026-04-26 11:03 6.68020 125.10097 26887 ft 489 kts 322°
2026-04-26 11:03 6.70702 125.07953 27367 ft 493 kts 322°
2026-04-26 11:03 6.74308 125.05068 28126 ft 496 kts 322°
2026-04-26 11:04 6.76091 125.03640 28454 ft 498 kts 321°
2026-04-26 11:04 6.79704 125.00747 29115 ft 503 kts 321°
2026-04-26 11:04 6.82457 124.98542 29562 ft 506 kts 321°
2026-04-26 11:04 6.85223 124.96327 30030 ft 508 kts 321°
2026-04-26 11:05 6.87998 124.94107 30350 ft 511 kts 322°
2026-04-26 11:05 6.89923 124.92731 30505 ft 513 kts 329°
2026-04-26 11:05 6.93192 124.91306 30840 ft 514 kts 346°
2026-04-26 11:05 6.96689 124.90612 31242 ft 511 kts 351°
2026-04-26 11:06 7.00184 124.89997 31684 ft 511 kts 351°
2026-04-26 11:06 7.03675 124.89365 32183 ft 510 kts 350°
2026-04-26 11:06 7.07163 124.88697 32713 ft 508 kts 349°
2026-04-26 11:06 7.10643 124.87999 33222 ft 507 kts 349°
2026-04-26 11:07 7.14090 124.87291 33727 ft 507 kts 349°
2026-04-26 11:07 7.17554 124.86575 34154 ft 506 kts 349°
2026-04-26 11:07 7.21002 124.85864 34603 ft 505 kts 349°
2026-04-26 11:07 7.24432 124.85161 35079 ft 502 kts 349°
2026-04-26 11:08 7.27851 124.84461 35538 ft 500 kts 349°
2026-04-26 11:08 7.31271 124.83758 35999 ft 499 kts 349°
2026-04-26 11:08 7.34617 124.83069 36447 ft 497 kts 349°
2026-04-26 11:08 7.38055 124.82359 36889 ft 496 kts 349°
2026-04-26 11:09 7.41430 124.81662 37303 ft 494 kts 349°
2026-04-26 11:09 7.44792 124.80967 37737 ft 493 kts 349°
2026-04-26 11:09 7.48101 124.80284 38093 ft 492 kts 349°
2026-04-26 11:09 7.51513 124.79580 38062 ft 494 kts 349°
2026-04-26 11:10 7.58199 124.78200 38080 ft 493 kts 349°
2026-04-26 11:10 7.64927 124.76810 38086 ft 493 kts 349°
2026-04-26 11:11 7.71652 124.75421 38103 ft 493 kts 349°
2026-04-26 11:11 7.78379 124.74031 38115 ft 493 kts 349°
2026-04-26 11:12 7.85097 124.72642 38118 ft 493 kts 349°
2026-04-26 11:12 7.91832 124.71249 38122 ft 494 kts 349°
2026-04-26 11:13 7.98584 124.69852 38122 ft 494 kts 349°
2026-04-26 11:13 8.05327 124.68451 38121 ft 494 kts 349°
2026-04-26 11:14 8.12033 124.67056 38117 ft 495 kts 349°
2026-04-26 11:14 8.18795 124.65649 38112 ft 495 kts 349°
2026-04-26 11:15 8.25533 124.64246 38102 ft 496 kts 349°
2026-04-26 11:15 8.32304 124.62837 38093 ft 496 kts 349°
2026-04-26 11:16 8.39048 124.61314 38085 ft 497 kts 343°
2026-04-26 11:16 8.45440 124.58772 38078 ft 498 kts 333°
2026-04-26 11:17 8.51481 124.55324 38070 ft 498 kts 330°
2026-04-26 11:17 8.57479 124.51785 38057 ft 498 kts 330°
2026-04-26 11:18 8.63488 124.48285 38055 ft 498 kts 330°
2026-04-26 11:18 8.69470 124.44832 38053 ft 498 kts 330°
2026-04-26 11:19 8.75493 124.41362 38051 ft 497 kts 330°
2026-04-26 11:19 8.81512 124.37888 38048 ft 497 kts 330°
2026-04-26 11:20 8.86509 124.35003 38049 ft 497 kts 330°
2026-04-26 11:20 8.93493 124.30967 38050 ft 496 kts 330°
2026-04-26 11:21 8.99498 124.27495 38049 ft 496 kts 330°
2026-04-26 11:21 9.05508 124.24017 38052 ft 497 kts 329°
2026-04-26 11:22 9.11482 124.20545 38053 ft 499 kts 329°
2026-04-26 11:22 9.17509 124.17038 38054 ft 500 kts 329°
2026-04-26 11:23 9.20233 124.15453 38065 ft 500 kts 329°
2026-04-26 11:23 9.24365 124.13050 38066 ft 500 kts 329°
2026-04-26 11:24 9.30399 124.09536 38064 ft 500 kts 329°
2026-04-26 11:24 9.36431 124.06024 38061 ft 498 kts 329°
2026-04-26 11:25 9.42392 124.02585 37920 ft 494 kts 329°
2026-04-26 11:25 9.48345 123.99174 37887 ft 488 kts 329°
2026-04-26 11:26 9.54241 123.95758 37886 ft 487 kts 329°
2026-04-26 11:26 9.60100 123.92345 37885 ft 487 kts 329°
2026-04-26 11:27 9.65986 123.88920 37883 ft 488 kts 329°
2026-04-26 11:27 9.71884 123.85489 37884 ft 489 kts 328°
2026-04-26 11:28 9.77764 123.82069 37880 ft 490 kts 328°
2026-04-26 11:28 9.83666 123.78632 37876 ft 490 kts 328°
2026-04-26 11:29 9.89582 123.75187 37873 ft 490 kts 328°
2026-04-26 11:29 9.95501 123.71735 37868 ft 490 kts 328°
2026-04-26 11:30 10.00418 123.68863 37866 ft 490 kts 328°
2026-04-26 11:30 10.07318 123.64829 37870 ft 490 kts 328°
2026-04-26 11:31 10.13234 123.61370 37876 ft 489 kts 328°
2026-04-26 11:31 10.19091 123.57943 37879 ft 489 kts 328°
2026-04-26 11:32 10.24988 123.54492 37881 ft 489 kts 328°
2026-04-26 11:32 10.30898 123.51034 37889 ft 489 kts 328°
2026-04-26 11:33 10.36809 123.47592 37893 ft 490 kts 328°
2026-04-26 11:33 10.42732 123.44144 37898 ft 490 kts 328°
2026-04-26 11:34 10.48649 123.40694 37903 ft 491 kts 328°
2026-04-26 11:34 10.54581 123.37234 37909 ft 491 kts 328°
2026-04-26 11:35 10.60477 123.33791 37905 ft 491 kts 328°
2026-04-26 11:35 10.65396 123.30915 37902 ft 491 kts 328°
2026-04-26 11:36 10.72306 123.26841 37906 ft 490 kts 328°
2026-04-26 11:36 10.78210 123.23370 37899 ft 490 kts 328°
2026-04-26 11:37 10.84111 123.19909 37903 ft 489 kts 328°
2026-04-26 11:37 10.90014 123.16442 37902 ft 489 kts 328°
2026-04-26 11:38 10.95906 123.12980 37901 ft 489 kts 328°
2026-04-26 11:38 11.01773 123.09535 37902 ft 489 kts 328°
2026-04-26 11:39 11.07661 123.06081 37902 ft 488 kts 328°
2026-04-26 11:39 11.13566 123.02615 37903 ft 488 kts 328°
2026-04-26 11:40 11.19454 122.99156 37902 ft 488 kts 328°
2026-04-26 11:40 11.25339 122.95696 37907 ft 488 kts 328°
2026-04-26 11:42 11.48774 122.81927 37900 ft 486 kts 327°
2026-04-26 11:43 11.54641 122.78477 37903 ft 485 kts 327°
2026-04-26 11:43 11.60475 122.75011 37904 ft 484 kts 325°
2026-04-26 11:44 11.66121 122.71271 37899 ft 483 kts 324°
2026-04-26 11:44 11.71711 122.67460 37898 ft 483 kts 323°
2026-04-26 11:45 11.77302 122.63667 37899 ft 483 kts 324°
2026-04-26 11:45 11.82906 122.59888 37901 ft 483 kts 324°
2026-04-26 11:46 11.88516 122.56111 37899 ft 483 kts 324°
2026-04-26 11:46 11.94090 122.52355 37907 ft 483 kts 324°
2026-04-26 11:47 11.99695 122.48576 37901 ft 482 kts 324°
2026-04-26 11:47 12.05299 122.44794 37911 ft 482 kts 324°
2026-04-26 11:48 12.10903 122.41011 37904 ft 482 kts 323°
2026-04-26 11:48 12.15561 122.37865 37906 ft 482 kts 324°
2026-04-26 11:49 12.21156 122.34085 37904 ft 482 kts 323°
2026-04-26 11:49 12.26748 122.30303 37909 ft 482 kts 323°
2026-04-26 11:50 12.32351 122.26512 37907 ft 482 kts 323°
2026-04-26 11:50 12.37944 122.22724 37903 ft 481 kts 323°
2026-04-26 11:51 12.43485 122.18895 37900 ft 481 kts 323°
2026-04-26 11:51 12.48990 122.15057 37906 ft 481 kts 323°
2026-04-26 11:52 12.54511 122.11212 37889 ft 480 kts 323°
2026-04-26 11:52 12.60044 122.07366 37907 ft 480 kts 323°
2026-04-26 11:53 12.65573 122.03521 37917 ft 480 kts 323°
2026-04-26 11:54 12.73838 121.97771 37911 ft 480 kts 323°
2026-04-26 11:54 12.79388 121.93907 37901 ft 480 kts 323°
2026-04-26 11:55 12.84910 121.90060 37910 ft 480 kts 323°
2026-04-26 11:55 12.87678 121.88131 37725 ft 483 kts 323°
2026-04-26 11:55 12.90437 121.86206 37067 ft 489 kts 323°
2026-04-26 11:55 12.93261 121.84236 36362 ft 488 kts 323°
2026-04-26 11:56 12.96072 121.82276 35587 ft 488 kts 323°
2026-04-26 11:56 12.98894 121.80307 34724 ft 492 kts 323°
2026-04-26 11:56 13.01707 121.78345 34126 ft 490 kts 323°
2026-04-26 11:56 13.04520 121.76382 33432 ft 488 kts 323°
2026-04-26 11:57 13.07321 121.74427 32803 ft 485 kts 323°
2026-04-26 11:57 13.10105 121.72484 32227 ft 481 kts 323°
2026-04-26 11:57 13.12823 121.70585 31656 ft 477 kts 323°
2026-04-26 11:57 13.15563 121.68671 31086 ft 474 kts 323°
2026-04-26 11:58 13.18278 121.66773 30507 ft 471 kts 323°
2026-04-26 11:58 13.20976 121.64886 29942 ft 468 kts 323°
2026-04-26 11:58 13.23643 121.63020 29460 ft 461 kts 323°
2026-04-26 11:58 13.26276 121.61179 29063 ft 452 kts 323°
2026-04-26 11:59 13.28838 121.59387 28654 ft 444 kts 323°
2026-04-26 11:59 13.31389 121.57601 28115 ft 440 kts 324°
2026-04-26 11:59 13.33880 121.55856 27537 ft 431 kts 324°
2026-04-26 11:59 13.36355 121.54123 26647 ft 421 kts 324°
2026-04-26 12:00 13.38742 121.52451 25650 ft 417 kts 324°
2026-04-26 12:00 13.41154 121.50759 24838 ft 422 kts 324°
2026-04-26 12:00 13.43567 121.49067 24442 ft 417 kts 324°
2026-04-26 12:00 13.45947 121.47399 24085 ft 410 kts 324°
2026-04-26 12:01 13.48297 121.45750 23703 ft 405 kts 324°
2026-04-26 12:01 13.50595 121.44138 23242 ft 402 kts 324°
2026-04-26 12:01 13.52915 121.42510 22698 ft 400 kts 324°
2026-04-26 12:01 13.55206 121.40902 22169 ft 397 kts 324°
2026-04-26 12:02 13.57450 121.39326 21692 ft 394 kts 324°
2026-04-26 12:02 13.59684 121.37702 21190 ft 391 kts 323°
2026-04-26 12:02 13.61879 121.36064 20693 ft 389 kts 322°
2026-04-26 12:02 13.64047 121.34433 20422 ft 380 kts 322°
2026-04-26 12:03 13.66102 121.32889 20404 ft 350 kts 322°
2026-04-26 12:03 13.67997 121.31469 20399 ft 323 kts 322°
2026-04-26 12:03 13.69763 121.30147 20415 ft 310 kts 322°
2026-04-26 12:03 13.71501 121.28844 20439 ft 315 kts 322°
2026-04-26 12:04 13.73282 121.27511 20396 ft 317 kts 322°
2026-04-26 12:04 13.75062 121.26179 20160 ft 316 kts 322°
2026-04-26 12:04 13.76837 121.24852 19833 ft 315 kts 323°
2026-04-26 12:04 13.78599 121.23535 19528 ft 312 kts 323°
2026-04-26 12:05 13.80356 121.22221 19199 ft 311 kts 323°
2026-04-26 12:05 13.82085 121.20929 18802 ft 305 kts 322°
2026-04-26 12:05 13.83803 121.19645 18150 ft 305 kts 322°
2026-04-26 12:05 13.85545 121.18343 17401 ft 306 kts 323°
2026-04-26 12:06 13.87251 121.17066 16817 ft 301 kts 323°
2026-04-26 12:06 13.88904 121.15830 16236 ft 297 kts 323°
2026-04-26 12:06 13.90582 121.14574 15603 ft 296 kts 323°
2026-04-26 12:06 13.92241 121.13332 15010 ft 294 kts 323°
2026-04-26 12:07 13.93885 121.12101 14441 ft 291 kts 323°
2026-04-26 12:07 13.95519 121.10878 13887 ft 289 kts 323°
2026-04-26 12:07 13.97149 121.09658 13170 ft 291 kts 324°
2026-04-26 12:07 13.98774 121.08441 12593 ft 286 kts 324°
2026-04-26 12:08 14.00377 121.07240 12055 ft 282 kts 324°
2026-04-26 12:08 14.01934 121.06075 11492 ft 279 kts 325°
2026-04-26 12:08 14.03489 121.04913 10924 ft 278 kts 325°
2026-04-26 12:08 14.05060 121.03738 10364 ft 276 kts 325°
2026-04-26 12:09 14.06609 121.02580 9976 ft 267 kts 326°
2026-04-26 12:09 14.08082 121.01476 9508 ft 263 kts 325°
2026-04-26 12:09 14.09547 121.00379 9151 ft 257 kts 326°
2026-04-26 12:09 14.11011 120.99284 8863 ft 266 kts 326°
2026-04-26 12:10 14.12535 120.98147 8557 ft 273 kts 325°
2026-04-26 12:10 14.14081 120.96987 8211 ft 275 kts 326°
2026-04-26 12:10 14.15629 120.95828 7896 ft 275 kts 326°
2026-04-26 12:10 14.17169 120.94678 7737 ft 269 kts 326°
2026-04-26 12:11 14.18691 120.93691 7557 ft 252 kts 332°
2026-04-26 12:11 14.20187 120.92828 7255 ft 242 kts 333°
2026-04-26 12:11 14.21641 120.91994 6843 ft 239 kts 332°
2026-04-26 12:11 14.23097 120.91147 6383 ft 237 kts 332°
2026-04-26 12:12 14.24507 120.90318 5910 ft 236 kts 332°
2026-04-26 12:12 14.25935 120.89474 5427 ft 236 kts 332°
2026-04-26 12:12 14.27374 120.88622 5075 ft 238 kts 332°
2026-04-26 12:12 14.28324 120.88066 4927 ft 235 kts 333°
2026-04-26 12:13 14.30242 120.86959 4501 ft 236 kts 333°
2026-04-26 12:13 14.31668 120.86136 4253 ft 234 kts 333°
2026-04-26 12:13 14.33086 120.85317 3999 ft 233 kts 333°
2026-04-26 12:13 14.34496 120.84502 3737 ft 232 kts 333°
2026-04-26 12:14 14.35898 120.83690 3469 ft 232 kts 332°
2026-04-26 12:14 14.37315 120.82882 3203 ft 228 kts 338°
2026-04-26 12:14 14.38772 120.82643 3077 ft 207 kts 15°
2026-04-26 12:14 14.39953 120.83306 3026 ft 195 kts 51°
2026-04-26 12:15 14.40816 120.84413 3065 ft 198 kts 55°
2026-04-26 12:15 14.41627 120.85517 3067 ft 189 kts 56°
2026-04-26 12:15 14.42363 120.86649 2823 ft 190 kts 60°
2026-04-26 12:15 14.43037 120.87822 2594 ft 190 kts 62°
2026-04-26 12:16 14.43689 120.89000 2376 ft 189 kts 62°
2026-04-26 12:16 14.44339 120.90171 2128 ft 185 kts 63°
2026-04-26 12:16 14.44947 120.91274 1912 ft 172 kts 62°
2026-04-26 12:16 14.45522 120.92312 1669 ft 160 kts 62°
2026-04-26 12:17 14.46063 120.93290 1470 ft 155 kts 62°
2026-04-26 12:17 14.46603 120.94270 1288 ft 159 kts 62°
2026-04-26 12:17 14.47145 120.95247 1113 ft 154 kts 62°
2026-04-26 12:17 14.47662 120.96178 909 ft 148 kts 63°
2026-04-26 12:18 14.48168 120.97093 734 ft 146 kts 63°
2026-04-26 12:18 14.48678 120.97986 539 ft 145 kts 63°
2026-04-26 12:18 14.49178 120.98903 383 ft 152 kts 64°
2026-04-26 12:18 14.49694 120.99844 181 ft 151 kts 61°
2026-04-26 12:19 14.50215 121.00758 66 ft 140 kts 64°
2026-04-26 12:19 14.50631 121.01526 65 ft 97 kts 60°
2026-04-26 12:19 14.50873 121.01965 66 ft 44 kts 60°
2026-04-26 12:19 14.50988 121.02175 65 ft 32 kts 57°
2026-04-26 12:20 14.51123 121.02291 68 ft 15 kts 37°
2026-04-26 12:20 14.51184 121.02278 66 ft 9 kts 291°
2026-04-26 12:20 14.51167 121.02212 64 ft 11 kts 240°
2026-04-26 12:20 14.51116 121.02123 65 ft 20 kts 239°
2026-04-26 12:21 14.51021 121.01951 63 ft 31 kts 240°
2026-04-26 12:21 14.50932 121.01793 65 ft 23 kts 240°
2026-04-26 12:21 14.50891 121.01675 68 ft 16 kts 294°
2026-04-26 12:21 14.50965 121.01596 65 ft 16 kts 315°
2026-04-26 12:22 14.51026 121.01533 65 ft 12 kts 315°
2026-04-26 12:22 14.51064 121.01493 68 ft 5 kts 314°
2026-04-26 12:22 14.51067 121.01454 67 ft 6 kts 249°
2026-04-26 12:22 14.51044 121.01425 66 ft 4 kts 225°
2026-04-26 12:23 14.51031 121.01412 66 ft 3 kts 225°
2026-04-26 12:23 14.51029 121.01410 73 ft 0 kts 225°